• In Hungary
  • List of Countries
  • For 7 days
  • Water Temperature
  • Satellite Maps
  • Weather Map
  • News
  • Weather Widgets
  • user-avatar
    Login

    Hourly Weather Karakol

    Today, 13 November, Tuesday

    Time Temperature Precipitation Wind Pressure Humidity
    00:00 -15°C° 0 mm 5 mps 754 mmHg 88%
    01:00 -15°C° 0.2 mm 5 mps 754 mmHg 88%
    02:00 -14°C° 0.2 mm 5 mps 754 mmHg 89%
    03:00 -14°C° 0.2 mm 4 mps 754 mmHg 89%
    04:00 -14°C° 0.2 mm 4 mps 754 mmHg 89%
    05:00 -12°C° 0.2 mm 4 mps 755 mmHg 89%
    06:00 -14°C° 0 mm 4 mps 755 mmHg 90%
    07:00 -12°C° 0.1 mm 4 mps 755 mmHg 89%
    08:00 -12°C° 0.1 mm 4 mps 756 mmHg 89%
    09:00 -12°C° 0.1 mm 4 mps 756 mmHg 89%
    10:00 -12°C° 0.1 mm 4 mps 756 mmHg 88%
    11:00 -11°C° 0.1 mm 4 mps 756 mmHg 87%
    12:00 -10°C° 0 mm 4 mps 757 mmHg 86%
    13:00 -10°C° 0.1 mm 4 mps 757 mmHg 86%
    14:00 -10°C° 0.1 mm 4 mps 757 mmHg 86%
    15:00 -10°C° 0.1 mm 4 mps 758 mmHg 87%
    16:00 -10°C° 0 mm 4 mps 758 mmHg 89%
    17:00 -9°C° 0 mm 3 mps 759 mmHg 90%
    18:00 -10°C° 0 mm 3 mps 759 mmHg 92%
    19:00 -10°C° 0 mm 3 mps 760 mmHg 92%
    20:00 -10°C° 0 mm 3 mps 760 mmHg 93%
    21:00 -10°C° 0 mm 3 mps 760 mmHg 93%
    22:00 -10°C° 0 mm 3 mps 761 mmHg 93%
    23:00 -10°C° 0 mm 3 mps 761 mmHg 93%

    Tomorrow, 14 November, Wednesday

    Time Temperature Precipitation Wind Pressure Humidity
    00:00 -10°C° 0 mm 3 mps 761 mmHg 93%
    01:00 -11°C° 0 mm 4 mps 761 mmHg 92%
    02:00 -10°C° 0 mm 4 mps 761 mmHg 91%
    03:00 -10°C° 0 mm 4 mps 761 mmHg 91%
    04:00 -11°C° 0.1 mm 5 mps 761 mmHg 90%
    05:00 -11°C° 0.1 mm 5 mps 761 mmHg 90%
    06:00 -11°C° 0.1 mm 5 mps 761 mmHg 89%
    07:00 -11°C° 0.1 mm 5 mps 761 mmHg 88%
    08:00 -11°C° 0.1 mm 5 mps 761 mmHg 87%
    09:00 -11°C° 0.1 mm 6 mps 761 mmHg 86%
    10:00 -10°C° 0.1 mm 6 mps 761 mmHg 85%
    11:00 -10°C° 0.1 mm 6 mps 761 mmHg 84%
    12:00 -10°C° 0.1 mm 6 mps 761 mmHg 84%
    13:00 -10°C° 0.1 mm 6 mps 761 mmHg 83%
    14:00 -9°C° 0.1 mm 6 mps 761 mmHg 83%
    15:00 -9°C° 0.1 mm 6 mps 760 mmHg 82%
    16:00 -9°C° 0.1 mm 6 mps 760 mmHg 83%
    17:00 -9°C° 0.1 mm 6 mps 760 mmHg 84%
    18:00 -9°C° 0.1 mm 6 mps 760 mmHg 85%
    19:00 -10°C° 0.2 mm 6 mps 759 mmHg 85%
    20:00 -10°C° 0.2 mm 6 mps 759 mmHg 85%
    21:00 -11°C° 0.2 mm 7 mps 759 mmHg 85%
    22:00 -9°C° 0.1 mm 7 mps 758 mmHg 84%
    23:00 -9°C° 0.1 mm 7 mps 758 mmHg 83%

    Day after tomorrow, 15 November, Thursday

    Time Temperature Precipitation Wind Pressure Humidity
    00:00 -9°C° 0.1 mm 7 mps 757 mmHg 82%
    01:00 -9°C° 0.2 mm 7 mps 757 mmHg 84%
    02:00 -9°C° 0.2 mm 7 mps 756 mmHg 85%
    03:00 -9°C° 0.2 mm 7 mps 755 mmHg 86%
    04:00 -9°C° 0.6 mm 7 mps 755 mmHg 87%
    05:00 -11°C° 0.6 mm 7 mps 755 mmHg 88%
    06:00 -10°C° 0.6 mm 6 mps 754 mmHg 89%
    07:00 -10°C° 0.6 mm 6 mps 754 mmHg 89%
    08:00 -10°C° 0.6 mm 6 mps 754 mmHg 89%
    09:00 -11°C° 0.6 mm 5 mps 754 mmHg 90%
    10:00 -10°C° 0.2 mm 5 mps 754 mmHg 88%
    11:00 -10°C° 0.2 mm 5 mps 755 mmHg 87%
    12:00 -10°C° 0.2 mm 5 mps 755 mmHg 86%
    13:00 -10°C° 0.1 mm 5 mps 755 mmHg 86%
    14:00 -10°C° 0.1 mm 5 mps 755 mmHg 86%
    15:00 -9°C° 0.1 mm 4 mps 756 mmHg 86%
    16:00 -9°C° 0.1 mm 4 mps 756 mmHg 87%
    17:00 -9°C° 0.1 mm 4 mps 756 mmHg 89%
    18:00 -9°C° 0.1 mm 4 mps 756 mmHg 90%
    19:00 -8°C° 0.2 mm 4 mps 757 mmHg 90%
    20:00 -8°C° 0.2 mm 4 mps 757 mmHg 91%
    21:00 -8°C° 0.2 mm 4 mps 757 mmHg 91%
    22:00 -8°C° 0.3 mm 4 mps 758 mmHg 91%
    23:00 -9°C° 0.3 mm 4 mps 759 mmHg 91%

    16 November, Friday

    Time Temperature Precipitation Wind Pressure Humidity
    00:00 -9°C° 0.3 mm 4 mps 759 mmHg 91%
    01:00 -12°C° 0.1 mm 4 mps 760 mmHg 90%
    02:00 -16°C° 0.1 mm 4 mps 761 mmHg 89%
    03:00 -19°C° 0.1 mm 3 mps 762 mmHg 88%
    04:00 -21°C° 0 mm 3 mps 763 mmHg 90%
    05:00 -21°C° 0 mm 2 mps 764 mmHg 92%
    06:00 -24°C° 0 mm 2 mps 765 mmHg 94%
    07:00 -24°C° 0 mm 2 mps 765 mmHg 93%
    08:00 -24°C° 0 mm 2 mps 766 mmHg 91%
    09:00 -24°C° 0 mm 2 mps 767 mmHg 90%
    10:00 -21°C° 0 mm 2 mps 767 mmHg 89%
    11:00 -19°C° 0 mm 2 mps 768 mmHg 88%
    12:00 -18°C° 0 mm 2 mps 768 mmHg 87%
    13:00 -18°C° 0 mm 2 mps 768 mmHg 89%
    14:00 -18°C° 0 mm 2 mps 768 mmHg 91%
    15:00 -18°C° 0 mm 2 mps 768 mmHg 92%
    16:00 -19°C° 0 mm 2 mps 769 mmHg 94%
    17:00 -20°C° 0 mm 2 mps 769 mmHg 96%
    18:00 -21°C° 0 mm 2 mps 769 mmHg 98%
    19:00 -20°C° 0 mm 1 mps 769 mmHg 98%
    20:00 -20°C° 0 mm 1 mps 769 mmHg 98%
    21:00 -20°C° 0 mm 1 mps 769 mmHg 98%
    22:00 -21°C° 0 mm 1 mps 769 mmHg 98%
    23:00 -21°C° 0 mm 1 mps 769 mmHg 97%

    17 November, Saturday

    Time Temperature Precipitation Wind Pressure Humidity
    00:00 -21°C° 0 mm 1 mps 769 mmHg 97%
    01:00 -21°C° 0 mm 1 mps 768 mmHg 97%
    02:00 -21°C° 0 mm 1 mps 768 mmHg 97%
    03:00 -21°C° 0 mm 1 mps 768 mmHg 96%
    04:00 -21°C° 0 mm 1 mps 768 mmHg 96%
    05:00 -21°C° 0 mm 1 mps 767 mmHg 96%
    06:00 -22°C° 0 mm 1 mps 767 mmHg 96%
    07:00 -21°C° 0 mm 1 mps 767 mmHg 96%
    08:00 -21°C° 0 mm 1 mps 766 mmHg 95%
    09:00 -24°C° 0 mm 2 mps 766 mmHg 95%
    10:00 -23°C° 0 mm 2 mps 766 mmHg 92%
    11:00 -20°C° 0 mm 2 mps 765 mmHg 89%
    12:00 -18°C° 0 mm 2 mps 765 mmHg 87%
    13:00 -16°C° 0 mm 1 mps 764 mmHg 88%
    14:00 -17°C° 0 mm 1 mps 763 mmHg 90%
    15:00 -17°C° 0 mm 1 mps 763 mmHg 92%
    16:00 -18°C° 0 mm 1 mps 762 mmHg 93%
    17:00 -21°C° 0 mm 2 mps 762 mmHg 94%
    18:00 -23°C° 0 mm 2 mps 761 mmHg 95%
    19:00 -23°C° 0 mm 2 mps 761 mmHg 96%
    20:00 -20°C° 0 mm 1 mps 761 mmHg 97%
    21:00 -19°C° 0 mm 1 mps 760 mmHg 98%
    22:00 -18°C° 0 mm 1 mps 760 mmHg 98%
    23:00 -18°C° 0 mm 1 mps 759 mmHg 98%

    18 November, Sunday

    Time Temperature Precipitation Wind Pressure Humidity
    00:00 -17°C° 0 mm 1 mps 759 mmHg 98%
    01:00 -16°C° 0 mm 1 mps 759 mmHg 98%
    02:00 -15°C° 0 mm 1 mps 758 mmHg 98%
    03:00 -15°C° 0 mm 1 mps 758 mmHg 97%
    04:00 -14°C° 0 mm 1 mps 758 mmHg 97%
    05:00 -14°C° 0 mm 1 mps 757 mmHg 97%
    06:00 -14°C° 0 mm 1 mps 757 mmHg 97%
    07:00 -14°C° 0 mm 1 mps 757 mmHg 97%
    08:00 -13°C° 0 mm 1 mps 757 mmHg 97%
    09:00 -13°C° 0 mm 1 mps 757 mmHg 97%
    10:00 -12°C° 0 mm 1 mps 756 mmHg 96%
    11:00 -11°C° 0 mm 1 mps 756 mmHg 94%
    12:00 -10°C° 0 mm 1 mps 756 mmHg 93%
    13:00 -10°C° 0 mm 1 mps 756 mmHg 94%
    14:00 -10°C° 0 mm 1 mps 756 mmHg 94%
    15:00 -9°C° 0 mm 0 mps 755 mmHg 95%
    16:00 -10°C° 0 mm 1 mps 756 mmHg 95%
    17:00 -10°C° 0 mm 1 mps 756 mmHg 96%
    18:00 -11°C° 0 mm 1 mps 756 mmHg 97%
    19:00 -11°C° 0 mm 1 mps 756 mmHg 97%
    20:00 -12°C° 0 mm 1 mps 755 mmHg 97%
    21:00 -12°C° 0 mm 1 mps 755 mmHg 98%
    22:00 -12°C° 0 mm 1 mps 755 mmHg 98%
    23:00 -12°C° 0 mm 1 mps 755 mmHg 97%
    Show more